Regional Weather Roundup
Issued by NWS State College, PA

Home | Current Version | Previous Version | Text Only | Print | Product List | Glossary On
Versions: 1 2 3 4 5 6 7 8 9 10 11 12 13 14 15 16 17 18 19 20 21 22 23 24 25 26 27 28 29 30 31 32 33 34 35 36 37 38 39 40 41 42 43 44 45 46 47 48 49 50
000
ASUS41 KCTP 251410
RWRCTP

REGIONAL WEATHER ROUNDUP
NATIONAL WEATHER SERVICE STATE COLLEGE PA
1000 AM EDT FRI JUL 25 2014

Note: "fair" indicates few or no clouds below 12,000 feet with no
significant weather and/or obstructions to visibility.

* = STATION THAT DOES NOT REPORT PRECIPITATION /E.G. RAIN...SNOW...ETC/
    THUNDER OR FOG.

PAZ002>004-007>009-013>016-020>023-029>032-251500-
WESTERN PENNSYLVANIA

CITY           SKY/WX    TMP DP  RH WIND       PRES   REMARKS
ERIE           SUNNY     69  52  54 SW8       30.08F
MEADVILLE      SUNNY     64  50  60 S3        30.11F
FRANKLIN*      SUNNY     64  48  55 S3        30.12F
NEW CASTLE       N/A     66  58  75 CALM      30.12F
BEAVER COUNTY  SUNNY     64  50  59 CALM      30.11F
BUTLER*        SUNNY     64  52  63 CALM      30.13F
PITTSBURGH INT MOSUNNY   65  52  62 CALM      30.11F
PITTSBURGH     SUNNY     65  51  60 CALM      30.11S
INDIANA*       SUNNY     66  54  63 VRB5      30.15F
LATROBE        SUNNY     64  57  77 CALM      30.13S
WASHINGTON CO* SUNNY     64  52  63 CALM      30.12F
$$

PAZ004>006-010>012-017>019-024>028-033>037-041-042-045-046-049>053-251500-
CENTRAL PENNSYLVANIA

CITY           SKY/WX    TMP DP  RH WIND       PRES   REMARKS
BRADFORD       SUNNY     62  46  55 CALM      30.12F
DUBOIS         SUNNY     65  46  50 CALM      30.11F
CLEARFIELD     SUNNY     60  52  74 S3        30.13F
JOHNSTOWN      SUNNY     62  51  67 CALM      30.13F
ALTOONA        SUNNY     66  50  56 CALM      30.13S
STATE COLLEGE  SUNNY     64  52  63 CALM      30.12S
WILLIAMSPORT   SUNNY     64  50  60 W7        30.09F
SELINSGROVE    SUNNY     68  55  63 CALM      30.10S
FT INDIANTOWN  SUNNY     71  51  48 VRB5      30.08S
CAPITAL CITY   SUNNY     68  50  52 NW7       30.09S
HARRISBURG     SUNNY     70  53  54 W9        30.07F
YORK           SUNNY     69  53  56 N7        30.08F
$$

PAZ038>040-043-044-047-048-054-055-060>062-067>071-251500-
EASTERN PENNSYLVANIA

CITY           SKY/WX    TMP DP  RH WIND       PRES   REMARKS
SCRANTON       SUNNY     66  50  56 CALM      30.09S
MOUNT POCONO   SUNNY     66  49  54 NE6       30.09S
ALLENTOWN      SUNNY     70  53  54 CALM      30.06S
QUAKERTOWN*    SUNNY     70  55  60 N3        30.06S
READING        SUNNY     69  52  54 NW7       30.07R
LANCASTER      SUNNY     68  52  56 E3        30.07S
COATESVILLE    SUNNY     68  54  60 N3        30.08R
POTTSTOWN      SUNNY     69  54  58 CALM      30.07S
BLUE BELL      SUNNY     72  55  56 CALM      30.04S
DOYLESTOWN     SUNNY     71  56  58 VRB5      30.04F
WILLOW GROVE   NOT AVBL
NORTH PHILA    SUNNY     74  55  51 NE6       30.05S
PHILADELPHIA   MOSUNNY   73  54  51 VRB3      30.04S
$$


USA.gov is the U.S. government's official web portal to all federal, state and local government web resources and services.